WetterOnline ( https://www.wetteronline.de )

Wetter aktuell Kalbsrieth

Aktuelles Wetter: Artern (166m)

6-stündlich | Neueste Meldungen
Ortszeit Temperatur Wetter
Mo, 21.09. 2:00 13.7° C fast wolkenlos
So, 20.09. 20:00 17.3° C wolkenlos
So, 20.09. 14:00 22.3° C leicht bewölkt
So, 20.09. 8:00 8.4° C wolkig
So, 20.09. 2:00 11.9° C wolkenlos
Sa, 19.09. 20:00 16.3° C wolkenlos
Sa, 19.09. 14:00 19.6° C leicht bewölkt
Sa, 19.09. 8:00 6.9° C wolkig
Ortszeit Temperatur Wetter
Mo, 21.09. 5:30 10.3° C wolkenlos
Mo, 21.09. 5:20 10.3° C wolkenlos
Mo, 21.09. 5:10 9.9° C wolkenlos
Mo, 21.09. 5:00 10.5° C fast wolkenlos
Mo, 21.09. 4:50 10.5° C fast wolkenlos
Mo, 21.09. 4:40 11.0° C leicht bewölkt
Mo, 21.09. 4:30 11.1° C wolkig
Mo, 21.09. 4:00 11.0° C wolkenlos
Mo, 21.09. 3:30 11.5° C wolkenlos
Mo, 21.09. 3:00 11.4° C leicht bewölkt
Mo, 21.09. 2:30 12.6° C wolkig
Ortszeit Relative Feuchte Sichtweite
Mo, 21.09. 2:00 57% 55 km
So, 20.09. 20:00 42% 60 km
So, 20.09. 14:00 34% 60 km
So, 20.09. 8:00 73% 60 km
So, 20.09. 2:00 54% 65 km
Sa, 19.09. 20:00 39% 65 km
Sa, 19.09. 14:00 35% 50 km
Sa, 19.09. 8:00 74% 60 km
Ortszeit Relative Feuchte Sichtweite
Mo, 21.09. 5:30 73% 55 km
Mo, 21.09. 5:20 73% -
Mo, 21.09. 5:10 75% -
Mo, 21.09. 5:00 71% 55 km
Mo, 21.09. 4:50 71% -
Mo, 21.09. 4:40 70% -
Mo, 21.09. 4:30 69% 55 km
Mo, 21.09. 4:00 69% 55 km
Mo, 21.09. 3:30 67% 55 km
Mo, 21.09. 3:00 66% 55 km
Mo, 21.09. 2:30 62% 60 km
Ortszeit Niederschlagsmenge Niederschlagsart
Mo, 21.09. 2:00 0.0 l/m2 in 6 Std. -
So, 20.09. 20:00 0.0 l/m2 in 12 Std. -
So, 20.09. 14:00 0.0 l/m2 in 6 Std. -
So, 20.09. 8:00 0.0 l/m2 in 12 Std. -
So, 20.09. 2:00 0.0 l/m2 in 6 Std. -
Sa, 19.09. 20:00 0.0 l/m2 in 12 Std. -
Sa, 19.09. 14:00 0.0 l/m2 in 6 Std. -
Sa, 19.09. 8:00 0.0 l/m2 in 12 Std. -
Ortszeit Niederschlagsmenge Niederschlagsart
Mo, 21.09. 5:30 0.0 l/m2 in 1 Std. -
Mo, 21.09. 5:20 keine Meldung -
Mo, 21.09. 5:10 keine Meldung -
Mo, 21.09. 5:00 0.0 l/m2 in 1 Std. -
Mo, 21.09. 4:50 keine Meldung -
Mo, 21.09. 4:40 keine Meldung -
Mo, 21.09. 4:30 0.0 l/m2 in 1 Std. -
Mo, 21.09. 4:00 0.0 l/m2 in 1 Std. -
Mo, 21.09. 3:30 0.0 l/m2 in 1 Std. -
Mo, 21.09. 3:00 0.0 l/m2 in 1 Std. -
Mo, 21.09. 2:30 0.0 l/m2 in 1 Std. -
Ortszeit Stärke Spitze Richtung
km/h Bft. km/h Grad Sektor
Mo, 21.09. 2:00 17 3 19 60° NO
So, 20.09. 20:00 14 3 40 50° NO
So, 20.09. 14:00 14 3 25 80° O
So, 20.09. 8:00 7 2 18 100° O
So, 20.09. 2:00 14 3 22 70° O
Sa, 19.09. 20:00 14 3 36 50° NO
Sa, 19.09. 14:00 13 3 22 70° O
Sa, 19.09. 8:00 4 1 14 160° S
Ortszeit Stärke Spitze Richtung
km/h Bft. km/h Grad Sektor
Mo, 21.09. 5:30 4 1 7 40° NO
Mo, 21.09. 5:20 4 1 - 40° NO
Mo, 21.09. 5:10 2 1 - 30° NO
Mo, 21.09. 5:00 4 1 11 360° N
Mo, 21.09. 4:50 4 1 - 360° N
Mo, 21.09. 4:40 4 1 - 30° NO
Mo, 21.09. 4:30 7 2 11 30° NO
Mo, 21.09. 4:00 7 2 14 40° NO
Mo, 21.09. 3:30 11 2 14 50° NO
Mo, 21.09. 3:00 15 3 17 40° NO
Mo, 21.09. 2:30 14 3 18 50° NO
Ortszeit Untergrenze Bedeckung Gattung
total tief tief mittel hoch
Mo, 21.09. 2:00 8400 m 2/8 0/8 - - -
So, 20.09. 20:00 - 0/8 0/8 - - -
So, 20.09. 14:00 7800 m 4/8 0/8 - - -
So, 20.09. 8:00 7800 m 8/8 0/8 - - -
So, 20.09. 2:00 - 0/8 0/8 - - -
Sa, 19.09. 20:00 - 0/8 0/8 - - -
Sa, 19.09. 14:00 8400 m 6/8 0/8 - - -
Sa, 19.09. 8:00 9000 m 7/8 0/8 - - -
Ortszeit Bedeckungsgrad in Achtel und Wolkenuntergrenze
Mo, 21.09. 5:30 keine Wolken
Mo, 21.09. 5:20 keine Wolken
Mo, 21.09. 5:10 keine Wolken
Mo, 21.09. 5:00 2(7800m)
Mo, 21.09. 4:50 2(7800m)
Mo, 21.09. 4:40 4(7800m)
Mo, 21.09. 4:30 7(7800m)
Mo, 21.09. 4:00 3(7800m)
Mo, 21.09. 3:30 keine Wolken
Mo, 21.09. 3:00 3(7500m)
Mo, 21.09. 2:30 6(7500m) 7(8400m)
Ortszeit Luftdruck NN (hPa) Tendenz (hPa in 3 Std.)
Mo, 21.09. 2:00 1018 0,0
So, 20.09. 20:00 1017 + 0,6
So, 20.09. 14:00 1018 - 1,0
So, 20.09. 8:00 1019 + 0,3
So, 20.09. 2:00 1019 - 0,3
Sa, 19.09. 20:00 1019 - 0,2
Sa, 19.09. 14:00 1021 - 1,1
Sa, 19.09. 8:00 1024 - 0,6
Ortszeit Luftdruck NN (hPa) Tendenz (hPa in 3 Std.)
Mo, 21.09. 5:30 1018 - 0,3
Mo, 21.09. 5:20 1018 keine Meldung
Mo, 21.09. 5:10 1018 keine Meldung
Mo, 21.09. 5:00 1018 - 0,5
Mo, 21.09. 4:50 1018 keine Meldung
Mo, 21.09. 4:40 1018 keine Meldung
Mo, 21.09. 4:30 1018 - 0,5
Mo, 21.09. 4:00 1018 - 0,4
Mo, 21.09. 3:30 1018 - 0,3
Mo, 21.09. 3:00 1018 - 0,2
Mo, 21.09. 2:30 1018 - 0,1
Ortszeit Schneehöhe (cm)
Mo, 21.09. 2:00 -
So, 20.09. 20:00 -
So, 20.09. 14:00 -
So, 20.09. 8:00 -
So, 20.09. 2:00 -
Sa, 19.09. 20:00 -
Sa, 19.09. 14:00 -
Sa, 19.09. 8:00 -
Ortszeit Schneehöhe (cm)
Mo, 21.09. 5:30 -
Mo, 21.09. 5:20 -
Mo, 21.09. 5:10 -
Mo, 21.09. 5:00 -
Mo, 21.09. 4:50 -
Mo, 21.09. 4:40 -
Mo, 21.09. 4:30 -
Mo, 21.09. 4:00 -
Mo, 21.09. 3:30 -
Mo, 21.09. 3:00 -
Mo, 21.09. 2:30 -
Link zu dieser Seite / Seite empfehlen

Das Wetter in ...